SL-19 DEB, 23564

Orbit data source: Space-Track

SL-19 DEB, 23564 is space debris in LEO originally from a launch on Mon, 26 Dec 1994 UTC launched from the Tyuratam Missile And Space Complex (TTMTR). Debris objects in space refer to the collection of defunct objects orbiting the Earth. Examples of debris include non-operational satellites, rocket bodies, and fragments generated from explosions, collisions, or faulty payload assembly.

Loading next visibility...
Identifier
23564, 1994-085V
Orbit
LEO
Country
Flag of CISCIS
Related business
Manufacturer
Unknown
Mission
Spacecraft
Bus & Motor
Unknown
Mass
Unknown
Launch date (UTC)
1994-12-26 (31 years ago)
Launch vehicle
Unknown
Launch site
Tyuratam Missile And Space Complex (TTMTR)
Object type
Payload
Rocket body
Debris
Shape & HBR
Unknown shape, 0.1 m
Radar Cross Section
Small (<0.1 m²)

Expand to show TLE details & history
Last TLE update: 7 hours ago

TLE from 7 hours ago
0 SL-19 DEB
1 23564U 94085V   26062.71232471  .00000058  00000-0  26106-2 0  9999
2 23564  64.9977 318.5332 0182584 101.1593 295.1201 11.34898107276206
Epoch: 2026-03-03T17:05Z
TLE epoch observation values (Epoch: 2026-03-03T17:05:44.854Z)
Latitude
30.83273°
Longitude
-83.30603°
Altitude
1,926.433 km
Speed
6.958 km/s
True Right ascension
22h 18m 28s
True Declination
30° 42' 10"
Sunlit
Object was in daylight at epoch
Visualization orbit readout
Latitude
Unknown
Longitude
Unknown
Altitude
Unknown
Speed
Unknown
Apparent Right ascension
Unknown
Apparent Declination
Unknown
Sunlit
N/A
Visualization observer readout
Local Sidereal Time
03:32:48
Azimuth
Unknown
Elevation
Unknown
Doppler factor
Unknown
Orbital elements
Apogee altitude
2,137.662 km
Perigee altitude
1,832.268 km
Semi-major axis
8,363.102 km
Eccentricity
0.01826
Inclination
64.9977°
RAAN
318.5332°
Arg. of periapsis
101.1593°
True anomaly
293.20756°
Mean anomaly
295.1201°
Eccentric anomaly
294.16565°
Mean motion
2.83787 °/min
Orbital period
126.86 mins
BSTAR
0.0026106
Loading maneuver chart data...
Computing Atmospheric mass density...
Loading historical data...
Loading historical data...
Loading historical data...
Loading historical data...
Loading historical data...
Loading historical data...
Loading historical data...

Documentation

Showing up to 5 results
|